Flag for Switzerland Weather past 2 weeks in Lausanne, Vaud, Switzerland

Now
71 °F

Mild.


Feels Like: 74 °F
Forecast: 65 / 89 °F
Wind: 1 mph from Southwest

Location: Aigle

Current Time: Jul 5, 2015 at 4:52:43 AM

Latest Report: Jul 5, 2015 at 4:00 AM


Visibility: N/A

Pressure: 30.09 "Hg

Humidity: 71%

Dew point: 61 °F

Location of LausanneLocation

Historic Weather in Lausanne — Graph

°F

Lausanne temperature yesterday

Maximum temperature yesterday: 90 °F (at 7:00 PM)
Minimum temperature yesterday: 70 °F (at 3:00 AM)
Average temperature yesterday: 81 °F

Past Weeks' High & Low Weather Summary

 TemperatureHumidityPressure
High92 °F (Jul 3, 6:00 PM)97% (Jun 23, 7:00 AM)30.23 "Hg (Jun 23, 7:00 AM)
Low47 °F (Jun 24, 7:00 AM)37% (Jul 4, 7:00 PM)29.77 "Hg (Jun 22, 10:00 PM)
Average69 °F66%30.09 "Hg
* Reported Jun 20 3:00 AM — Jul 5 3:00 AM, Lausanne, Weather by CustomWeather, © 2015

Note: Actual official high and low records may vary slightly from our data, if they occured in-between our weather recording intervals... More about our weather records

Advertising

Lausanne weather history for previous 24 hours

 ConditionsComfort  
Time TempWeatherWind HumidityBarometerVisibility
3:00 AM
Sun, Jul 5
68 °FMild.3 mph84%30.09 "HgN/A
2:00 AM71 °FMild.5 mph76%30.09 "HgN/A
1:00 AM73 °FMild.2 mph69%30.09 "HgN/A
12:00 AM72 °FMild.2 mph78%30.09 "HgN/A
10:00 PM
Sat, Jul 4
80 °FWarm.3 mph60%30.06 "HgN/A
9:00 PM82 °FWarm.2 mph59%30.06 "HgN/A
8:00 PM88 °FScattered clouds.3 mph44%30.04 "Hg14 mi
7:00 PM90 °FHot.3 mph37%30.03 "HgN/A
6:00 PM89 °FHot.8 mph44%30.05 "HgN/A
5:00 PM90 °FPassing clouds.9 mph39%30.05 "Hg14 mi
4:00 PM88 °FHot.10 mph44%30.07 "HgN/A
3:00 PM88 °FHot.9 mph46%30.08 "HgN/A
2:00 PM88 °FPassing clouds.7 mph52%30.10 "Hg14 mi
1:00 PM86 °FWarm.7 mph48%30.13 "HgN/A
12:00 PM84 °FWarm.9 mph61%30.14 "HgN/A
11:00 AM82 °FSunny.8 mph55%30.15 "Hg19 mi
10:00 AM83 °FWarm.3 mph47%30.15 "HgN/A
9:00 AM80 °FWarm.6 mph45%30.16 "HgN/A
8:00 AM77 °FScattered clouds.1 mph62%30.17 "Hg12 mi
7:00 AM77 °FMild.5 mph63%30.16 "HgN/A
6:00 AM79 °FWarm.6 mph45%30.15 "HgN/A
5:00 AM74 °FPassing clouds.5 mph55%30.16 "Hg12 mi
4:00 AM72 °FMild.3 mph64%30.16 "HgN/A
Weather by CustomWeather, © 2015

See weather overviewHow to use our weather pages